sat.trackr.live / text

‹ back to catalog

STARLINK-31793

NORAD 60053 · 2024-112R

PAYLOAD ACTIVE UNKNOWN

§ Identity

Operator
Country
US
Launch date
2024-06-08
Launch site
AFWTR
Launch vehicle
Mass (kg)
RCS (m²)

Purposes: comms

External: N2YO · Heavens-Above · Gunter

§ Orbital elements

Epoch: 2026-09-21T21:48:03.871296Z

Period
93.85 min
Inclination
53.1595°
Eccentricity
0.0001182
Mean motion
15.34388414 rev/d
Perigee alt
461.9 km
Apogee alt
463.5 km
Semi-major
6,840.9 km
B*
1.1041e-5
RAAN
244.8068°
Arg perigee
89.8253°
Mean anomaly
270.2885°
Rev number
12,866

§ Raw data

STARLINK-317931 60053U 24112R   26264.90837814 -.00000003  00000+0  11041-4 0  99982 60053  53.1595 244.8068 0001182  89.8253 270.2885 15.34388414128669

JSON: /api/v1/satellites/60053 · /tle

For live sub-satellite position, see the globe view (requires WebGL).

§ Visibility from observer

Set your observer location to see the next 7 days of passes ≥ 10°. The values pass through the URL so the page stays shareable.

No JS? Fill the form by hand. The geolocation button needs JavaScript.